Location: Ciserano
(45.5833°N, 9.6000°E)
Time: 01:52:17
(UTC+00:00)

SJ 16-02 - Pass Details

Date: 21 April 2021
Orbit: 605 x 617 km, 75.0° (Epoch: 10 May)

Event Time Altitude Azimuth Distance (km) Brightness Sun altitude
Exits shadow 00:25:15 28° 56° (NE) 1,155 3.1 -30.7°
Drops below altitude 10° 00:27:44 10° 34° (NE) 1,987 4.8 -30.6°
Sets 00:30:05 0° 27° (NNE) 2,898 6.0 -30.4°
